TimeEST,TemperatureF,Dew PointF,Humidity,Sea Level PressureIn,VisibilityMPH,Wind Direction,Wind SpeedMPH,Gust SpeedMPH,PrecipitationIn,Events,Conditions,WindDirDegrees,DateUTC
12:52 AM,30.2,28.4,93,30.02,4.0,North,4.6,-,0.00,Snow,Light Snow,360,2013-01-29 05:52:00
12:54 AM,30.0,28.0,92,30.02,3.0,North,4.6,-,0.00,Snow,Light Snow,10,2013-01-29 05:54:00
1:05 AM,30.2,26.6,86,30.03,2.5,North,5.8,-,0.00,Snow,Light Snow,10,2013-01-29 06:05:00
1:23 AM,28.4,26.6,93,30.04,3.0,NNW,5.8,-,0.00,Snow,Light Snow,340,2013-01-29 06:23:00
1:43 AM,28.4,26.6,93,30.04,2.5,North,6.9,-,0.00,Snow,Light Snow,360,2013-01-29 06:43:00
1:54 AM,28.9,26.1,89,30.04,2.5,North,6.9,-,0.01,Snow,Light Snow,350,2013-01-29 06:54:00
2:54 AM,28.0,25.0,88,30.05,2.5,North,8.1,-,0.00,Snow,Light Snow,350,2013-01-29 07:54:00
3:54 AM,28.0,25.0,88,30.06,9.0,North,8.1,-,0.00,,Overcast,350,2013-01-29 08:54:00
4:32 AM,26.6,24.8,93,30.07,3.0,NNW,8.1,-,0.00,Snow,Light Snow,340,2013-01-29 09:32:00
4:51 AM,26.6,24.8,93,30.07,7.0,NNW,8.1,-,0.00,Snow,Light Snow,330,2013-01-29 09:51:00
4:54 AM,27.0,24.1,89,30.07,8.0,NNW,8.1,-,0.00,,Overcast,340,2013-01-29 09:54:00
5:21 AM,26.6,24.8,93,30.08,10.0,NNW,10.4,-,N/A,,Overcast,340,2013-01-29 10:21:00
5:28 AM,26.6,24.8,93,30.08,10.0,NNW,6.9,-,N/A,,Overcast,340,2013-01-29 10:28:00
5:43 AM,26.6,23.0,86,30.09,10.0,NNW,9.2,-,N/A,,Overcast,340,2013-01-29 10:43:00
5:54 AM,27.0,24.1,89,30.09,10.0,NNW,8.1,-,N/A,,Overcast,330,2013-01-29 10:54:00
6:54 AM,27.0,23.0,85,30.12,10.0,NW,6.9,-,N/A,,Overcast,310,2013-01-29 11:54:00
7:54 AM,27.0,24.1,89,30.15,10.0,NW,6.9,-,N/A,,Overcast,320,2013-01-29 12:54:00
8:54 AM,28.0,24.1,85,30.17,10.0,WNW,6.9,-,N/A,,Overcast,290,2013-01-29 13:54:00
9:54 AM,28.0,24.1,85,30.17,9.0,NW,5.8,-,N/A,,Overcast,320,2013-01-29 14:54:00
10:05 AM,28.4,24.8,86,30.17,8.0,NW,4.6,-,N/A,,Overcast,320,2013-01-29 15:05:00
10:54 AM,30.9,26.1,82,30.19,8.0,NW,3.5,-,N/A,,Overcast,320,2013-01-29 15:54:00
11:54 AM,32.0,27.0,82,30.19,10.0,North,4.6,-,N/A,,Overcast,360,2013-01-29 16:54:00
12:54 PM,33.1,28.0,82,30.17,8.0,NNW,3.5,-,N/A,,Overcast,330,2013-01-29 17:54:00
1:54 PM,34.0,28.0,79,30.16,8.0,Calm,Calm,-,N/A,,Overcast,0,2013-01-29 18:54:00
2:54 PM,33.1,28.9,85,30.18,10.0,Calm,Calm,-,N/A,,Overcast,0,2013-01-29 19:54:00
3:54 PM,33.1,28.0,82,30.17,8.0,SSE,3.5,-,N/A,,Overcast,150,2013-01-29 20:54:00
4:54 PM,33.1,28.0,82,30.19,8.0,SW,3.5,-,N/A,,Overcast,230,2013-01-29 21:54:00
5:54 PM,33.1,28.9,85,30.18,9.0,SSE,3.5,-,N/A,,Overcast,160,2013-01-29 22:54:00
6:54 PM,33.1,28.9,85,30.19,7.0,Calm,Calm,-,N/A,,Overcast,0,2013-01-29 23:54:00
7:27 PM,33.8,28.4,81,30.18,7.0,ESE,4.6,-,N/A,,Overcast,120,2013-01-30 00:27:00
7:54 PM,33.1,30.0,89,30.19,7.0,Calm,Calm,-,N/A,,Overcast,0,2013-01-30 00:54:00
8:54 PM,33.1,30.9,92,30.19,5.0,South,3.5,-,N/A,,Overcast,190,2013-01-30 01:54:00
9:43 PM,33.8,30.2,87,30.18,2.0,South,5.8,-,0.00,Rain,Light Rain,170,2013-01-30 02:43:00
9:54 PM,33.1,30.9,92,30.18,2.0,SSE,4.6,-,0.00,,Overcast,150,2013-01-30 02:54:00
10:35 PM,33.8,30.2,87,30.16,2.5,ESE,3.5,-,0.00,,Light Drizzle,110,2013-01-30 03:35:00
10:54 PM,33.1,30.9,92,30.16,2.5,SE,4.6,-,0.00,,Overcast,130,2013-01-30 03:54:00
11:54 PM,33.1,30.9,92,30.17,2.0,Calm,Calm,-,N/A,,Overcast,0,2013-01-30 04:54:00